Time,TemperatureF,DewpointF,PressureIn,WindDirection,WindDirectionDegrees,WindSpeedMPH,WindSpeedGustMPH,Humidity,HourlyPrecipIn,Conditions,Clouds,dailyrainin,SoftwareType,DateUTC
2013-05-31 00:13:00,67.1,65.0,29.95,SE,135,0.0,-999.0,93,-99.99,,,0.00,Acu-Link.com,2013-05-31 04:13:00,
2013-05-31 00:28:00,66.9,64.8,29.96,SE,135,0.0,-999.0,93,-99.99,,,0.00,Acu-Link.com,2013-05-31 04:28:00,
2013-05-31 00:43:00,66.6,64.5,29.95,SE,135,0.0,-999.0,93,-99.99,,,0.00,Acu-Link.com,2013-05-31 04:43:00,
2013-05-31 00:58:00,66.2,64.4,29.96,SE,135,0.0,-999.0,94,-99.99,,,0.00,Acu-Link.com,2013-05-31 04:58:00,
2013-05-31 01:13:00,65.7,64.2,29.96,SE,135,0.0,-999.0,95,-99.99,,,0.00,Acu-Link.com,2013-05-31 05:13:00,
2013-05-31 01:28:00,65.7,64.5,29.95,NNW,337,0.0,-999.0,96,-99.99,,,0.00,Acu-Link.com,2013-05-31 05:28:00,
2013-05-31 01:43:00,65.3,63.8,29.95,NNW,337,0.0,-999.0,95,-99.99,,,0.00,Acu-Link.com,2013-05-31 05:43:00,
2013-05-31 01:59:00,65.1,63.9,29.95,ESE,112,0.0,-999.0,96,-99.99,,,0.00,Acu-Link.com,2013-05-31 05:59:00,
2013-05-31 02:14:00,65.1,63.9,29.94,ESE,112,0.0,-999.0,96,-99.99,,,0.00,Acu-Link.com,2013-05-31 06:14:00,
2013-05-31 02:29:00,65.1,63.9,29.93,NNE,22,0.0,-999.0,96,-99.99,,,0.00,Acu-Link.com,2013-05-31 06:29:00,
2013-05-31 02:44:00,64.9,64.0,29.93,NNW,337,0.0,-999.0,97,-99.99,,,0.00,Acu-Link.com,2013-05-31 06:44:00,
2013-05-31 02:59:00,64.8,63.9,29.93,ESE,112,0.0,-999.0,97,-99.99,,,0.00,Acu-Link.com,2013-05-31 06:59:00,
2013-05-31 03:14:00,64.8,64.5,29.93,ENE,67,0.0,-999.0,99,-99.99,,,0.00,Acu-Link.com,2013-05-31 07:14:00,
2013-05-31 03:29:00,64.8,64.5,29.92,North,0,0.0,-999.0,99,-99.99,,,0.00,Acu-Link.com,2013-05-31 07:29:00,
2013-05-31 03:44:00,64.6,64.3,29.91,ESE,112,0.0,-999.0,99,-99.99,,,0.00,Acu-Link.com,2013-05-31 07:44:00,
2013-05-31 03:59:00,64.8,64.5,29.92,SE,135,0.0,-999.0,99,-99.99,,,0.00,Acu-Link.com,2013-05-31 07:59:00,
2013-05-31 04:15:00,65.1,64.8,29.92,NE,45,0.0,-999.0,99,-99.99,,,0.00,Acu-Link.com,2013-05-31 08:15:00,
2013-05-31 04:30:00,65.1,64.8,29.92,NNW,337,0.0,-999.0,99,-99.99,,,0.00,Acu-Link.com,2013-05-31 08:30:00,
2013-05-31 04:45:00,66.0,65.4,29.93,SSE,157,0.0,-999.0,98,-99.99,,,0.00,Acu-Link.com,2013-05-31 08:45:00,
2013-05-31 05:01:00,66.7,65.5,29.93,NW,315,1.7,-999.0,96,-99.99,,,0.00,Acu-Link.com,2013-05-31 09:01:00,
2013-05-31 05:16:00,68.0,66.2,29.93,NNW,337,1.1,-999.0,94,-99.99,,,0.00,Acu-Link.com,2013-05-31 09:16:00,
2013-05-31 05:31:00,68.4,66.0,29.94,SSW,202,0.0,-999.0,92,-99.99,,,0.00,Acu-Link.com,2013-05-31 09:31:00,
2013-05-31 05:46:00,67.8,65.7,29.95,ENE,67,0.0,-999.0,93,-99.99,,,0.00,Acu-Link.com,2013-05-31 09:46:00,
2013-05-31 06:01:00,67.5,65.7,29.95,SSE,157,0.0,-999.0,94,-99.99,,,0.00,Acu-Link.com,2013-05-31 10:01:00,
2013-05-31 06:16:00,66.9,65.1,29.96,ENE,67,0.0,-999.0,94,-99.99,,,0.00,Acu-Link.com,2013-05-31 10:16:00,
2013-05-31 06:31:00,66.6,65.1,29.96,NNE,22,0.0,-999.0,95,-99.99,,,0.00,Acu-Link.com,2013-05-31 10:31:00,
2013-05-31 06:47:00,66.2,65.3,29.96,NNE,22,0.0,-999.0,97,-99.99,,,0.00,Acu-Link.com,2013-05-31 10:47:00,
2013-05-31 07:02:00,66.0,65.1,29.97,NNW,337,0.0,-999.0,97,-99.99,,,0.00,Acu-Link.com,2013-05-31 11:02:00,
2013-05-31 07:17:00,66.7,65.8,29.97,SSE,157,1.7,-999.0,97,-99.99,,,0.00,Acu-Link.com,2013-05-31 11:17:00,
2013-05-31 07:32:00,67.6,66.4,29.97,ESE,112,0.0,-999.0,96,-99.99,,,0.00,Acu-Link.com,2013-05-31 11:32:00,
2013-05-31 07:47:00,68.9,67.1,29.98,SE,135,4.2,-999.0,94,-99.99,,,0.00,Acu-Link.com,2013-05-31 11:47:00,
2013-05-31 08:02:00,70.3,67.5,29.99,West,270,4.7,-999.0,91,-99.99,,,0.00,Acu-Link.com,2013-05-31 12:02:00,
2013-05-31 08:17:00,70.7,67.6,29.99,South,180,0.0,-999.0,90,-99.99,,,0.00,Acu-Link.com,2013-05-31 12:17:00,
2013-05-31 08:32:00,72.0,67.9,30.00,East,90,2.2,-999.0,87,-99.99,,,0.00,Acu-Link.com,2013-05-31 12:32:00,
2013-05-31 08:47:00,73.2,68.8,30.00,WNW,292,2.2,-999.0,86,-99.99,,,0.00,Acu-Link.com,2013-05-31 12:47:00,
2013-05-31 09:02:00,73.4,68.3,30.00,South,180,1.7,-999.0,84,-99.99,,,0.00,Acu-Link.com,2013-05-31 13:02:00,
2013-05-31 09:18:00,73.6,68.8,30.00,WSW,247,3.2,-999.0,85,-99.99,,,0.00,Acu-Link.com,2013-05-31 13:18:00,
2013-05-31 09:33:00,73.8,68.7,30.00,West,270,3.2,-999.0,84,-99.99,,,0.00,Acu-Link.com,2013-05-31 13:33:00,
2013-05-31 09:48:00,73.8,68.7,29.99,NNW,337,2.2,-999.0,84,-99.99,,,0.00,Acu-Link.com,2013-05-31 13:48:00,
2013-05-31 10:03:00,73.9,68.8,30.00,West,270,4.7,-999.0,84,-99.99,,,0.00,Acu-Link.com,2013-05-31 14:03:00,
2013-05-31 10:18:00,75.0,68.8,30.00,West,270,2.2,-999.0,81,-99.99,,,0.00,Acu-Link.com,2013-05-31 14:18:00,
2013-05-31 10:33:00,75.7,69.4,30.00,NNW,337,4.2,-999.0,81,-99.99,,,0.00,Acu-Link.com,2013-05-31 14:33:00,
2013-05-31 10:48:00,75.4,69.2,29.99,NE,45,0.0,-999.0,81,-99.99,,,0.00,Acu-Link.com,2013-05-31 14:48:00,
2013-05-31 11:03:00,75.6,69.0,29.99,SSE,157,1.1,-999.0,80,-99.99,,,0.00,Acu-Link.com,2013-05-31 15:03:00,
2013-05-31 11:18:00,76.3,69.7,29.98,SSE,157,1.1,-999.0,80,-99.99,,,0.00,Acu-Link.com,2013-05-31 15:18:00,
2013-05-31 11:34:00,77.2,69.0,29.97,NE,45,1.7,-999.0,76,-99.99,,,0.00,Acu-Link.com,2013-05-31 15:34:00,
2013-05-31 11:49:00,78.1,69.5,29.97,SE,135,1.7,-999.0,75,-99.99,,,0.00,Acu-Link.com,2013-05-31 15:49:00,
2013-05-31 12:04:00,77.2,70.2,29.97,NNW,337,1.1,-999.0,79,-99.99,,,0.00,Acu-Link.com,2013-05-31 16:04:00,
2013-05-31 12:19:00,80.4,70.9,29.96,SSE,157,0.0,-999.0,73,-99.99,,,0.00,Acu-Link.com,2013-05-31 16:19:00,
2013-05-31 12:34:00,79.9,70.9,29.95,NNW,337,1.7,-999.0,74,-99.99,,,0.00,Acu-Link.com,2013-05-31 16:34:00,
2013-05-31 12:49:00,82.6,70.9,29.95,West,270,2.2,-999.0,68,-99.99,,,0.00,Acu-Link.com,2013-05-31 16:49:00,
2013-05-31 13:04:00,80.8,70.1,29.94,NNW,337,3.2,-999.0,70,-99.99,,,0.00,Acu-Link.com,2013-05-31 17:04:00,
2013-05-31 13:19:00,82.4,69.9,29.93,SSW,202,4.2,-999.0,66,-99.99,,,0.00,Acu-Link.com,2013-05-31 17:19:00,
2013-05-31 13:34:00,82.0,69.0,29.92,West,270,3.7,-999.0,65,-99.99,,,0.00,Acu-Link.com,2013-05-31 17:34:00,
2013-05-31 13:50:00,83.8,70.8,29.92,West,270,2.2,-999.0,65,-99.99,,,0.00,Acu-Link.com,2013-05-31 17:50:00,
2013-05-31 14:05:00,84.4,70.9,29.92,NNW,337,2.2,-999.0,64,-99.99,,,0.00,Acu-Link.com,2013-05-31 18:05:00,
2013-05-31 14:20:00,85.6,71.1,29.91,WNW,292,4.2,-999.0,62,-99.99,,,0.00,Acu-Link.com,2013-05-31 18:20:00,
2013-05-31 14:35:00,83.8,68.9,29.91,WSW,247,3.2,-999.0,61,-99.99,,,0.00,Acu-Link.com,2013-05-31 18:35:00,
2013-05-31 14:50:00,82.9,69.0,29.90,WSW,247,2.7,-999.0,63,-99.99,,,0.00,Acu-Link.com,2013-05-31 18:50:00,
2013-05-31 15:05:00,83.7,70.2,29.90,SSW,202,0.0,-999.0,64,-99.99,,,0.00,Acu-Link.com,2013-05-31 19:05:00,
2013-05-31 15:20:00,85.1,70.1,29.89,ENE,67,2.7,-999.0,61,-99.99,,,0.00,Acu-Link.com,2013-05-31 19:20:00,
2013-05-31 15:35:00,84.2,70.7,29.89,SSE,157,0.0,-999.0,64,-99.99,,,0.00,Acu-Link.com,2013-05-31 19:35:00,
2013-05-31 15:50:00,82.4,70.3,29.89,NNW,337,3.2,-999.0,67,-99.99,,,0.00,Acu-Link.com,2013-05-31 19:50:00,
2013-05-31 16:06:00,84.4,69.5,29.88,SSE,157,2.2,-999.0,61,-99.99,,,0.00,Acu-Link.com,2013-05-31 20:06:00,
2013-05-31 16:21:00,83.1,69.6,29.88,SSE,157,2.2,-999.0,64,-99.99,,,0.00,Acu-Link.com,2013-05-31 20:21:00,
2013-05-31 16:36:00,84.4,72.2,29.87,SSE,157,0.0,-999.0,67,-99.99,,,0.00,Acu-Link.com,2013-05-31 20:36:00,
2013-05-31 16:51:00,85.1,70.1,29.87,NW,315,3.2,-999.0,61,-99.99,,,0.00,Acu-Link.com,2013-05-31 20:51:00,
2013-05-31 17:06:00,83.3,70.3,29.87,SE,135,0.0,-999.0,65,-99.99,,,0.00,Acu-Link.com,2013-05-31 21:06:00,
2013-05-31 17:21:00,81.9,71.1,29.87,SSE,157,2.7,-999.0,70,-99.99,,,0.00,Acu-Link.com,2013-05-31 21:21:00,
2013-05-31 17:36:00,81.5,69.5,29.86,WSW,247,2.7,-999.0,67,-99.99,,,0.00,Acu-Link.com,2013-05-31 21:36:00,
2013-05-31 17:51:00,82.0,69.0,29.86,SSE,157,1.7,-999.0,65,-99.99,,,0.00,Acu-Link.com,2013-05-31 21:51:00,
2013-05-31 18:06:00,81.7,70.5,29.86,NW,315,1.7,-999.0,69,-99.99,,,0.00,Acu-Link.com,2013-05-31 22:06:00,
2013-05-31 18:22:00,84.6,71.1,29.87,SSE,157,0.0,-999.0,64,-99.99,,,0.00,Acu-Link.com,2013-05-31 22:22:00,
2013-05-31 18:37:00,84.6,72.0,29.86,SSE,157,0.0,-999.0,66,-99.99,,,0.00,Acu-Link.com,2013-05-31 22:37:00,
2013-05-31 18:52:00,84.7,69.2,29.86,SSE,157,2.7,-999.0,60,-99.99,,,0.00,Acu-Link.com,2013-05-31 22:52:00,
2013-05-31 19:07:00,85.8,70.8,29.86,ESE,112,0.0,-999.0,61,-99.99,,,0.00,Acu-Link.com,2013-05-31 23:07:00,
2013-05-31 19:22:00,85.3,69.8,29.86,SE,135,0.0,-999.0,60,-99.99,,,0.00,Acu-Link.com,2013-05-31 23:22:00,
2013-05-31 19:37:00,84.2,69.7,29.86,ESE,112,0.0,-999.0,62,-99.99,,,0.00,Acu-Link.com,2013-05-31 23:37:00,
2013-05-31 19:52:00,82.6,70.5,29.86,SE,135,0.0,-999.0,67,-99.99,,,0.00,Acu-Link.com,2013-05-31 23:52:00,
2013-05-31 20:07:00,81.7,69.2,29.86,SE,135,0.0,-999.0,66,-99.99,,,0.00,Acu-Link.com,2013-06-01 00:07:00,
2013-05-31 20:22:00,80.6,68.6,29.86,East,90,0.0,-999.0,67,-99.99,,,0.00,Acu-Link.com,2013-06-01 00:22:00,
2013-05-31 20:38:00,79.3,68.2,29.86,ESE,112,0.0,-999.0,69,-99.99,,,0.00,Acu-Link.com,2013-06-01 00:38:00,
2013-05-31 20:53:00,78.3,67.7,29.85,SE,135,0.0,-999.0,70,-99.99,,,0.00,Acu-Link.com,2013-06-01 00:53:00,
2013-05-31 21:08:00,77.4,67.2,29.85,ESE,112,0.0,-999.0,71,-99.99,,,0.00,Acu-Link.com,2013-06-01 01:08:00,
2013-05-31 21:23:00,76.3,67.0,29.85,ESE,112,0.0,-999.0,73,-99.99,,,0.00,Acu-Link.com,2013-06-01 01:23:00,
2013-05-31 21:38:00,75.4,66.9,29.85,East,90,0.0,-999.0,75,-99.99,,,0.00,Acu-Link.com,2013-06-01 01:38:00,
2013-05-31 21:53:00,74.8,66.7,29.85,East,90,0.0,-999.0,76,-99.99,,,0.00,Acu-Link.com,2013-06-01 01:53:00,
2013-05-31 22:08:00,74.3,67.0,29.86,ESE,112,0.0,-999.0,78,-99.99,,,0.00,Acu-Link.com,2013-06-01 02:08:00,
2013-05-31 22:23:00,73.8,66.9,29.86,East,90,0.0,-999.0,79,-99.99,,,0.00,Acu-Link.com,2013-06-01 02:23:00,
2013-05-31 22:38:00,73.0,66.8,29.86,East,90,0.0,-999.0,81,-99.99,,,0.00,Acu-Link.com,2013-06-01 02:38:00,
2013-05-31 22:53:00,72.1,66.3,29.86,SSE,157,0.0,-999.0,82,-99.99,,,0.00,Acu-Link.com,2013-06-01 02:53:00,
2013-05-31 23:09:00,71.4,67.0,29.86,SSE,157,0.0,-999.0,86,-99.99,,,0.00,Acu-Link.com,2013-06-01 03:09:00,
2013-05-31 23:24:00,70.9,66.8,29.86,SSE,157,0.0,-999.0,87,-99.99,,,0.00,Acu-Link.com,2013-06-01 03:24:00,
2013-05-31 23:39:00,70.2,66.5,29.85,NNW,337,0.0,-999.0,88,-99.99,,,0.00,Acu-Link.com,2013-06-01 03:39:00,
2013-05-31 23:54:00,69.6,66.2,29.85,NNW,337,0.0,-999.0,89,-99.99,,,0.00,Acu-Link.com,2013-06-01 03:54:00,